Weather History for KIWD - November, 2011

Change the Weather History Date:

Friday, November 11, 2011

  Actual Average Record
Temperature  
Mean Temperature 34 °F -  
Max Temperature 41 °F 38 °F 60 °F (2005)
Min Temperature 26 °F 25 °F 17 °F (1996)
Degree Days  
Heating Degree Days 32    
Moisture  
Dew Point 23 °F    
Average Humidity 66    
Maximum Humidity 80    
Minimum Humidity 53    
Precipitation  
Precipitation 0.02 in - - ()
Sea Level Pressure  
Sea Level Pressure 29.65 in    
Wind  
Wind Speed 9 mph (SSW)    
Max Wind Speed 15 mph    
Max Gust Speed 24 mph    
Visibility 10 miles    
Events      
Averages and records for this station are not official NWS values.
T = Trace of Precipitation, MM = Missing Value Source: NWS Daily Summary

Daily Weather History Graph

Daily Weather History Graph

Search for Another Location

Airport or City:

Trip Planner

Search our weather history database for the weather conditions in past years. The results will help you decide how hot, cold, wet, or windy it might be!

Date:

Astronomy

Nov. 11, 2011 Rise Set
Actual Time 6:56 AM CST 4:32 PM CST
Civil Twilight 6:23 AM CST 5:04 PM CST
Nautical Twilight 5:47 AM CST 5:40 PM CST
Astronomical Twilight 5:12 AM CST 6:16 PM CST
Moon 4:55 PM CST (11/11) 7:50 AM CST (11/11)
Length of Visible Light 10h 40m
Length of Day
9h 35m
Full, 99% of the Moon is Illuminated
Nov 11
Full
Nov 18
Last Quarter
Nov 25
New
Dec 2
First Quarter
Dec 10
Full

Hourly Weather History & Observations

Time (CST) Temp. Windchill Dew Point Humidity Pressure Visibility Wind Dir Wind Speed Gust Speed Precip Events Conditions
12:35 AM 30.2 °F 21.9 °F 23.0 °F 75% 29.86 in 10.0 mi WSW 9.2 mph - N/A   Overcast
12:55 AM 30.2 °F 21.3 °F 23.0 °F 75% 29.86 in 10.0 mi WSW 10.4 mph - N/A   Overcast
1:15 AM 30.2 °F 19.8 °F 21.2 °F 69% 29.85 in 10.0 mi WSW 13.8 mph - N/A   Overcast
1:35 AM 30.2 °F 21.3 °F 19.4 °F 64% 29.85 in 10.0 mi WSW 10.4 mph - N/A   Overcast
2:15 AM 30.2 °F 23.4 °F 21.2 °F 69% 29.85 in 10.0 mi WSW 6.9 mph - N/A   Overcast
2:35 AM 30.2 °F 23.4 °F 21.2 °F 69% 29.85 in 10.0 mi WSW 6.9 mph - N/A   Overcast
2:55 AM 30.2 °F 21.9 °F 19.4 °F 64% 29.85 in 10.0 mi WSW 9.2 mph - N/A   Overcast
3:15 AM 28.4 °F 21.2 °F 19.4 °F 69% 29.84 in 10.0 mi WSW 6.9 mph - N/A   Overcast
3:35 AM 28.4 °F 21.2 °F 19.4 °F 69% 29.83 in 10.0 mi SW 6.9 mph - N/A   Overcast
3:55 AM 28.4 °F 24.6 °F 19.4 °F 69% 29.82 in 10.0 mi SSW 3.5 mph - N/A   Scattered Clouds
4:15 AM 28.4 °F 23.3 °F 19.4 °F 69% 29.81 in 10.0 mi South 4.6 mph - N/A   Partly Cloudy
4:55 AM 26.6 °F 20.0 °F 19.4 °F 74% 29.80 in 10.0 mi South 5.8 mph - N/A   Clear
5:15 AM 26.6 °F 19.1 °F 19.4 °F 74% 29.79 in 10.0 mi South 6.9 mph - N/A   Clear
5:35 AM 26.6 °F 20.0 °F 19.4 °F 74% 29.79 in 10.0 mi South 5.8 mph - N/A   Clear
5:55 AM 26.6 °F 19.1 °F 19.4 °F 74% 29.79 in 10.0 mi South 6.9 mph - N/A   Clear
6:15 AM 26.6 °F 20.0 °F 19.4 °F 74% 29.79 in 10.0 mi South 5.8 mph - N/A   Partly Cloudy
6:35 AM 26.6 °F 20.0 °F 19.4 °F 74% 29.78 in 10.0 mi South 5.8 mph - N/A   Partly Cloudy
6:55 AM 26.6 °F 19.1 °F 19.4 °F 74% 29.78 in 10.0 mi South 6.9 mph - N/A   Scattered Clouds
7:15 AM 26.6 °F 21.2 °F 19.4 °F 74% 29.77 in 10.0 mi South 4.6 mph - N/A   Mostly Cloudy
7:35 AM 26.6 °F 20.0 °F 19.4 °F 74% 29.77 in 10.0 mi South 5.8 mph - N/A   Overcast
7:55 AM 26.6 °F 20.0 °F 19.4 °F 74% 29.76 in 10.0 mi South 5.8 mph - N/A   Overcast
8:35 AM 28.4 °F 21.2 °F 21.2 °F 74% 29.73 in 10.0 mi SW 6.9 mph - N/A   Overcast
8:55 AM 28.4 °F 21.2 °F 23.0 °F 80% 29.72 in 10.0 mi SSW 6.9 mph 16.1 mph N/A   Overcast
9:15 AM 30.2 °F 21.3 °F 21.2 °F 69% 29.70 in 10.0 mi South 10.4 mph - N/A   Overcast
9:35 AM 30.2 °F 19.8 °F 23.0 °F 75% 29.69 in 10.0 mi South 13.8 mph 21.9 mph N/A   Overcast
9:55 AM 30.2 °F 23.4 °F 24.8 °F 80% 29.67 in 10.0 mi South 6.9 mph - N/A   Overcast
10:15 AM 32.0 °F 23.6 °F 24.8 °F 75% 29.65 in 10.0 mi South 10.4 mph 18.4 mph N/A   Overcast
10:55 AM 33.8 °F 25.3 °F 26.6 °F 75% 29.65 in 10.0 mi South 11.5 mph 19.6 mph N/A   Overcast
11:15 AM 33.8 °F 24.3 °F 24.8 °F 70% 29.64 in 10.0 mi SSW 13.8 mph 21.9 mph N/A   Overcast
11:35 AM 33.8 °F 30.8 °F 26.6 °F 75% 29.63 in 10.0 mi SW 3.5 mph 17.3 mph N/A   Overcast
12:35 PM 35.6 °F 30.7 °F 26.6 °F 70% 29.55 in 10.0 mi South 5.8 mph 19.6 mph N/A   Overcast
12:55 PM 37.4 °F 28.5 °F 26.6 °F 65% 29.56 in 10.0 mi SSW 15.0 mph 24.2 mph N/A   Overcast
1:15 PM 37.4 °F 30.3 °F 24.8 °F 60% 29.54 in 10.0 mi SSW 10.4 mph 21.9 mph N/A   Overcast
1:35 PM 37.4 °F 32.1 °F 24.8 °F 60% 29.52 in 10.0 mi SSW 6.9 mph 18.4 mph N/A   Overcast
1:55 PM 39.2 °F 30.8 °F 24.8 °F 56% 29.50 in 10.0 mi SSW 15.0 mph 23.0 mph 0.01 in   Mostly Cloudy
2:15 PM 39.2 °F 32.0 °F 24.8 °F 56% 29.50 in 10.0 mi SSW 11.5 mph 20.7 mph N/A   Scattered Clouds
2:35 PM 41.0 °F 33.9 °F 26.6 °F 57% 29.50 in 10.0 mi SSW 12.7 mph 24.2 mph 0.01 in   Scattered Clouds
3:15 PM 41.0 °F 33.9 °F 24.8 °F 53% 29.50 in 10.0 mi SSW 12.7 mph 19.6 mph N/A   Mostly Cloudy
3:35 PM 41.0 °F 35.2 °F 24.8 °F 53% 29.50 in 10.0 mi SW 9.2 mph 18.4 mph N/A   Mostly Cloudy
3:55 PM 41.0 °F 35.2 °F 24.8 °F 53% 29.49 in 10.0 mi SSW 9.2 mph 21.9 mph N/A   Partly Cloudy
5:15 PM 39.2 °F 32.0 °F 24.8 °F 56% 29.50 in 10.0 mi SW 11.5 mph 17.3 mph N/A   Clear
5:35 PM 39.2 °F 33.0 °F 24.8 °F 56% 29.50 in 10.0 mi SW 9.2 mph - N/A   Clear
5:55 PM 39.2 °F 32.5 °F 24.8 °F 56% 29.51 in 10.0 mi SW 10.4 mph 17.3 mph N/A   Clear
6:15 PM 39.2 °F 32.5 °F 24.8 °F 56% 29.51 in 10.0 mi SW 10.4 mph 16.1 mph N/A   Clear
6:35 PM 39.2 °F 31.6 °F 24.8 °F 56% 29.50 in 10.0 mi SW 12.7 mph 19.6 mph N/A   Clear
6:55 PM 39.2 °F 31.6 °F 24.8 °F 56% 29.51 in 10.0 mi SW 12.7 mph 17.3 mph N/A   Clear
7:15 PM 39.2 °F 32.0 °F 24.8 °F 56% 29.52 in 10.0 mi SW 11.5 mph - N/A   Clear
7:35 PM 39.2 °F 31.2 °F 24.8 °F 56% 29.50 in 10.0 mi SW 13.8 mph 18.4 mph N/A   Clear
7:55 PM 39.2 °F 31.6 °F 24.8 °F 56% 29.50 in 10.0 mi SW 12.7 mph - N/A   Clear
8:15 PM 39.2 °F 31.6 °F 24.8 °F 56% 29.50 in 10.0 mi SW 12.7 mph - N/A   Clear
8:35 PM 39.2 °F 30.8 °F 26.6 °F 61% 29.50 in 10.0 mi SW 15.0 mph - N/A   Clear
8:55 PM 39.2 °F 31.2 °F 24.8 °F 56% 29.50 in 10.0 mi SW 13.8 mph - N/A   Clear
9:35 PM 39.2 °F 31.2 °F 24.8 °F 56% 29.50 in 10.0 mi SW 13.8 mph - N/A   Clear
9:55 PM 39.2 °F 32.0 °F 26.6 °F 61% 29.50 in 10.0 mi SW 11.5 mph - N/A   Clear
10:15 PM 37.4 °F 30.3 °F 26.6 °F 65% 29.50 in 10.0 mi SW 10.4 mph - N/A   Clear
10:35 PM 39.2 °F 32.0 °F 24.8 °F 56% 29.51 in 10.0 mi SW 11.5 mph - N/A   Clear
11:15 PM 37.4 °F 29.8 °F 26.6 °F 65% 29.51 in 10.0 mi SW 11.5 mph - N/A   Clear
11:35 PM 37.4 °F 29.3 °F 26.6 °F 65% 29.52 in 10.0 mi SW 12.7 mph - N/A   Clear